AFR1400 LFPG-LEMD

Flight info

Callsign AFR1400
Flight time N/A
Altitude 33000
Route AGOPA DCT ARKIP DCT ARNAV DCT LMG DCT UVELI DCT OSMOB DCT ARVID DCT PPN DCT NOLSA DCT ALEPO DCT VASUM DCT BANEV
Aircraft A20N/M-SDE2E3FGHIRWXY/LB1

Departure

Time N/A
Airport Charles de Gaulle International Airport (LFPG)

Arrival

Time 2026-05-07 19:38
Airport Adolfo Suárez Madrid–Barajas Airport (LEMD)
Time Latitude Longitude Altitude Speed Heading
2026-05-07 19:13 41.71960 -2.37386 33171 ft 469 kts 205°
2026-05-07 19:13 41.66118 -2.41182 33171 ft 468 kts 205°
2026-05-07 19:14 41.60298 -2.44955 32778 ft 466 kts 205°
2026-05-07 19:14 41.57374 -2.46849 32043 ft 469 kts 205°
2026-05-07 19:14 41.54431 -2.48753 31123 ft 473 kts 205°
2026-05-07 19:15 41.51466 -2.50669 30485 ft 470 kts 205°
2026-05-07 19:15 41.48547 -2.52554 29946 ft 464 kts 205°
2026-05-07 19:15 41.45641 -2.54428 29340 ft 460 kts 205°
2026-05-07 19:15 41.42770 -2.56278 28733 ft 456 kts 205°
2026-05-07 19:16 41.39933 -2.58105 28136 ft 452 kts 205°
2026-05-07 19:16 41.38021 -2.59334 27731 ft 449 kts 205°
2026-05-07 19:16 41.35181 -2.61073 27147 ft 445 kts 200°
2026-05-07 19:16 41.32237 -2.62206 26561 ft 439 kts 189°
2026-05-07 19:17 41.29255 -2.62636 25987 ft 434 kts 180°
2026-05-07 19:17 41.26264 -2.62453 25419 ft 429 kts 175°
2026-05-07 19:17 41.23285 -2.62169 24840 ft 426 kts 175°
2026-05-07 19:17 41.20338 -2.61901 24271 ft 422 kts 175°
2026-05-07 19:18 41.17484 -2.61645 23718 ft 419 kts 175°
2026-05-07 19:18 41.14589 -2.61388 23146 ft 415 kts 175°
2026-05-07 19:18 41.11715 -2.61133 22583 ft 411 kts 175°
2026-05-07 19:18 41.08870 -2.60880 22019 ft 408 kts 175°
2026-05-07 19:19 41.06054 -2.60630 21461 ft 405 kts 175°
2026-05-07 19:19 41.03210 -2.60377 20895 ft 401 kts 175°
2026-05-07 19:19 41.00436 -2.60131 20336 ft 398 kts 175°
2026-05-07 19:19 40.97689 -2.59887 19787 ft 394 kts 175°
2026-05-07 19:20 40.94957 -2.59645 19231 ft 391 kts 175°
2026-05-07 19:20 40.92261 -2.59406 18681 ft 388 kts 175°
2026-05-07 19:20 40.89583 -2.59168 18135 ft 385 kts 175°
2026-05-07 19:20 40.86955 -2.58936 17593 ft 382 kts 175°
2026-05-07 19:21 40.84291 -2.59151 17045 ft 380 kts 192°
2026-05-07 19:21 40.81879 -2.60390 16507 ft 378 kts 210°
2026-05-07 19:21 40.79836 -2.62569 15974 ft 376 kts 224°
2026-05-07 19:21 40.78011 -2.65034 15528 ft 371 kts 225°
2026-05-07 19:22 40.76257 -2.67440 15390 ft 357 kts 225°
2026-05-07 19:22 40.74554 -2.69760 15264 ft 344 kts 225°
2026-05-07 19:22 40.72916 -2.71970 15148 ft 331 kts 224°
2026-05-07 19:22 40.71353 -2.74063 14995 ft 314 kts 224°
2026-05-07 19:23 40.69844 -2.76076 14826 ft 297 kts 224°
2026-05-07 19:23 40.68418 -2.77975 14474 ft 288 kts 224°
2026-05-07 19:23 40.67052 -2.79791 14286 ft 276 kts 224°
2026-05-07 19:23 40.65694 -2.81503 14168 ft 267 kts 218°
2026-05-07 19:24 40.64160 -2.82893 14022 ft 284 kts 209°
2026-05-07 19:24 40.62411 -2.84267 13971 ft 285 kts 210°
2026-05-07 19:24 40.60739 -2.85608 13863 ft 279 kts 210°
2026-05-07 19:24 40.59105 -2.86929 13589 ft 276 kts 210°
2026-05-07 19:25 40.57479 -2.88243 13168 ft 274 kts 210°
2026-05-07 19:25 40.55870 -2.89541 12753 ft 272 kts 210°
2026-05-07 19:25 40.54263 -2.90835 12300 ft 272 kts 210°
2026-05-07 19:25 40.52686 -2.92104 12020 ft 266 kts 210°
2026-05-07 19:26 40.51110 -2.93370 11792 ft 271 kts 210°
2026-05-07 19:26 40.49525 -2.94642 11552 ft 269 kts 210°
2026-05-07 19:26 40.47947 -2.95909 11313 ft 267 kts 210°
2026-05-07 19:26 40.46381 -2.97167 11075 ft 266 kts 210°
2026-05-07 19:27 40.44830 -2.98411 10847 ft 265 kts 210°
2026-05-07 19:27 40.43282 -2.99652 10608 ft 264 kts 210°
2026-05-07 19:27 40.41734 -3.00892 10375 ft 263 kts 210°
2026-05-07 19:27 40.40202 -3.02119 10137 ft 263 kts 210°
2026-05-07 19:28 40.38662 -3.03351 9904 ft 262 kts 210°
2026-05-07 19:28 40.37151 -3.04560 9677 ft 261 kts 210°
2026-05-07 19:28 40.35622 -3.05783 9448 ft 260 kts 210°
2026-05-07 19:28 40.34098 -3.07000 9214 ft 259 kts 210°
2026-05-07 19:29 40.32595 -3.08201 8988 ft 257 kts 210°
2026-05-07 19:29 40.31106 -3.09390 8767 ft 257 kts 210°
2026-05-07 19:29 40.29589 -3.10600 8533 ft 256 kts 210°
2026-05-07 19:29 40.28127 -3.11766 8311 ft 255 kts 210°
2026-05-07 19:30 40.26796 -3.13187 8093 ft 256 kts 232°
2026-05-07 19:30 40.26092 -3.15282 7828 ft 258 kts 262°
2026-05-07 19:30 40.26166 -3.17561 7569 ft 258 kts 279°
2026-05-07 19:30 40.26495 -3.19804 7302 ft 256 kts 282°
2026-05-07 19:31 40.26844 -3.21975 7104 ft 254 kts 282°
2026-05-07 19:31 40.27188 -3.24210 7015 ft 245 kts 281°
2026-05-07 19:31 40.27482 -3.26250 7001 ft 230 kts 280°
2026-05-07 19:31 40.27753 -3.28225 7008 ft 234 kts 280°
2026-05-07 19:32 40.28012 -3.30159 7003 ft 228 kts 279°
2026-05-07 19:32 40.28286 -3.32219 7008 ft 227 kts 282°
2026-05-07 19:32 40.28756 -3.34111 6989 ft 227 kts 291°
2026-05-07 19:32 40.29290 -3.35901 6840 ft 225 kts 291°
2026-05-07 19:33 40.29868 -3.37711 6460 ft 228 kts 300°
2026-05-07 19:33 40.30784 -3.39326 5987 ft 234 kts 315°
2026-05-07 19:33 40.31991 -3.40761 5553 ft 238 kts 321°
2026-05-07 19:33 40.33245 -3.42056 5200 ft 238 kts 323°
2026-05-07 19:34 40.34515 -3.43356 4864 ft 237 kts 323°
2026-05-07 19:34 40.35748 -3.44613 4551 ft 227 kts 323°
2026-05-07 19:34 40.36915 -3.45807 4250 ft 212 kts 323°
2026-05-07 19:34 40.38020 -3.46934 4035 ft 195 kts 323°
2026-05-07 19:35 40.39019 -3.47954 3786 ft 184 kts 323°
2026-05-07 19:35 40.39919 -3.48872 3559 ft 169 kts 323°
2026-05-07 19:35 40.40720 -3.49691 3358 ft 156 kts 323°
2026-05-07 19:35 40.41469 -3.50453 3161 ft 145 kts 323°
2026-05-07 19:36 40.42202 -3.51202 2999 ft 152 kts 322°
2026-05-07 19:36 40.42975 -3.52008 2848 ft 160 kts 321°
2026-05-07 19:36 40.43797 -3.52861 2614 ft 170 kts 323°
2026-05-07 19:36 40.44623 -3.53694 2345 ft 164 kts 323°
2026-05-07 19:37 40.45369 -3.54440 2142 ft 153 kts 324°
2026-05-07 19:37 40.46087 -3.55162 2036 ft 139 kts 323°
2026-05-07 19:37 40.46748 -3.55834 1982 ft 132 kts 323°
2026-05-07 19:37 40.47295 -3.56389 1983 ft 100 kts 322°
2026-05-07 19:38 40.47685 -3.56765 1982 ft 66 kts 324°
2026-05-07 19:38 40.47930 -3.57021 1981 ft 38 kts 321°
2026-05-07 19:38 40.48056 -3.57184 1980 ft 29 kts 307°
2026-05-07 19:38 40.48158 -3.57395 1984 ft 30 kts 295°
2026-05-07 19:39 40.48242 -3.57601 1980 ft 28 kts 310°
2026-05-07 19:39 40.48332 -3.57715 1982 ft 17 kts 320°